Flag for Germany Weather past 2 weeks in Wittenberg, Saxony-Anhalt, Germany

Now
68 °F

Scattered clouds.


Feels Like: 68 °F
Forecast: 55 / 73 °F
Wind: 7 mph from North

Location: Holzdorf

Current Time: Jul 12, 2014 at 2:36:14 PM

Latest Report: Jul 12, 2014 at 1:20 PM


Visibility: N/A

Pressure: 29.83 "Hg

Humidity: 60%

Dew point: 54 °F

Location of WittenbergLocation

Historic Weather in Wittenberg — Graph

°F

Wittenberg temperature yesterday

Maximum temperature yesterday: 77 °F (at 12:20 PM)
Minimum temperature yesterday: 55 °F (at 4:20 AM)
Average temperature yesterday: 67 °F

Past Weeks' High & Low Weather Summary

 TemperatureHumidityPressure
High88 °F (Jul 4, 2:20 PM)100% (Jun 29, 11:20 PM)30.24 "Hg (Jun 29, 11:20 PM)
Low43 °F (Jul 2, 4:20 AM)21% (Jul 4, 5:20 PM)29.59 "Hg (Jul 9, 1:20 AM)
Average66 °F71%29.89 "Hg
* Reported Jun 27 1:20 PM — Jul 12 1:20 PM, Wittenberg, Weather by CustomWeather, © 2014

Note: Actual official high and low records may vary slightly from our data, if they occured in-between our weather recording intervals... More about our weather records

Advertising

Wittenberg weather history for previous 24 hours

 ConditionsComfort  
Time TempWeatherWind HumidityBarometerVisibility
1:20 PM
Jul 12
68 °FScattered clouds.7 mph60%29.83 "HgN/A
12:20 PM68 °FScattered clouds.6 mph60%29.83 "HgN/A
11:20 AM64 °FPartly sunny.5 mph73%29.86 "HgN/A
10:20 AM63 °FPartly sunny.6 mph77%29.86 "HgN/A
9:20 AM61 °FBroken clouds.5 mph83%29.86 "HgN/A
8:20 AM59 °FPartly sunny.5 mph88%29.86 "HgN/A
7:20 AM57 °FPartly sunny.5 mph94%29.86 "HgN/A
6:45 AM55 °FPartly sunny.5 mph94%29.83 "HgN/A
6:20 AM54 °FPartly sunny.5 mph100%29.83 "HgN/A
5:20 AM52 °FPassing clouds.5 mph94%29.86 "HgN/A
4:20 AM52 °FPassing clouds.3 mph94%29.83 "HgN/A
3:20 AM55 °FPassing clouds.6 mph88%29.86 "HgN/A
2:20 AM57 °FPassing clouds.5 mph82%29.86 "HgN/A
1:20 AM59 °FPassing clouds.6 mph77%29.86 "HgN/A
12:20 AM59 °FPassing clouds.5 mph72%29.86 "HgN/A
11:20 PM
Jul 11
63 °FPassing clouds.7 mph64%29.86 "HgN/A
10:20 PM64 °FScattered clouds.7 mph64%29.86 "HgN/A
9:20 PM68 °FPassing clouds.6 mph64%29.83 "HgN/A
8:20 PM70 °FScattered clouds.6 mph78%29.83 "HgN/A
7:20 PM72 °FPartly sunny.1 mph78%29.80 "HgN/A
6:20 PM72 °FBroken clouds.3 mph73%29.80 "HgN/A
5:20 PM68 °FBroken clouds.5 mph83%29.80 "HgN/A
5:00 PM64 °FBroken clouds.2 mph88%29.83 "HgN/A
4:20 PM68 °FThunderstorms. Partly sunny.9 mph78%29.83 "Hg6 mi
3:45 PM70 °FThunderstorms. Partly sunny.8 mph69%29.80 "HgN/A
3:20 PM73 °FThundershowers. Partly sunny.9 mph61%29.80 "HgN/A
2:20 PM72 °FThunderstorms. Partly sunny.12 mph73%29.80 "Hg6 mi
Weather by CustomWeather, © 2014

See weather overviewHow to use our weather pages